Year,Month,Day,Hour,Minute,Value (Times are PST for temperature in C)
2015,06,30,09,39,20.40
2015,06,30,09,41,20.60
2015,06,30,09,42,20.60
2015,06,30,09,43,20.70
2015,06,30,09,44,20.70
2015,06,30,09,45,20.80
2015,06,30,09,46,20.90
2015,06,30,09,47,21.00
2015,06,30,09,48,21.00
2015,06,30,09,49,21.10
2015,06,30,09,50,21.20
2015,06,30,09,51,21.30
2015,06,30,09,52,21.30
2015,06,30,09,53,21.30
2015,06,30,09,54,21.30
2015,06,30,09,55,21.30
2015,06,30,09,56,21.30
2015,06,30,09,57,21.30
2015,06,30,09,58,21.30
2015,06,30,09,59,21.30
2015,06,30,10,00,21.30
2015,06,30,10,01,21.30
2015,06,30,10,02,21.30
2015,06,30,10,03,21.30
2015,06,30,10,04,21.30
2015,06,30,10,05,21.40
2015,06,30,10,06,21.50
2015,06,30,10,07,21.60
2015,06,30,10,08,21.50
2015,06,30,10,09,21.40
2015,06,30,10,10,21.30
2015,06,30,10,11,21.30
2015,06,30,10,12,21.30
2015,06,30,10,13,21.30
2015,06,30,10,14,21.30
2015,06,30,10,15,21.40
2015,06,30,10,16,21.40
2015,06,30,10,17,21.40
2015,06,30,10,18,21.60
2015,06,30,10,19,21.70
2015,06,30,10,20,22.00
2015,06,30,10,21,22.10
2015,06,30,10,22,22.10
2015,06,30,10,23,22.10
2015,06,30,10,24,22.10
2015,06,30,10,25,22.10
2015,06,30,10,26,22.10
2015,06,30,10,27,22.10
2015,06,30,10,28,22.10
2015,06,30,10,29,22.00
2015,06,30,10,30,22.00
2015,06,30,10,31,22.00
2015,06,30,10,32,22.10
2015,06,30,10,33,22.20
2015,06,30,10,34,22.30
2015,06,30,10,35,22.30
2015,06,30,10,36,22.40
2015,06,30,10,37,22.30
2015,06,30,10,38,22.20
2015,06,30,10,39,22.20
2015,06,30,10,40,22.30
2015,06,30,10,41,22.30
2015,06,30,10,42,22.30
2015,06,30,10,43,22.30
2015,06,30,10,44,22.30
2015,06,30,10,45,22.30
2015,06,30,10,46,22.30
2015,06,30,10,47,22.40
2015,06,30,10,48,22.50
2015,06,30,10,49,22.50
2015,06,30,10,50,22.50
2015,06,30,10,51,22.40
2015,06,30,10,52,22.40
2015,06,30,10,53,22.50
2015,06,30,10,54,22.50
2015,06,30,10,55,22.60
2015,06,30,10,56,22.60
2015,06,30,10,57,22.70
2015,06,30,10,58,22.80
2015,06,30,10,59,22.90
2015,06,30,11,00,22.90
2015,06,30,11,01,22.90
2015,06,30,11,02,22.90
2015,06,30,11,03,22.90
2015,06,30,11,04,22.90
2015,06,30,11,05,22.90
2015,06,30,11,06,22.90
2015,06,30,11,07,22.90
2015,06,30,11,08,22.90
2015,06,30,11,09,22.90
2015,06,30,11,10,22.90
2015,06,30,11,11,22.90
2015,06,30,11,12,22.90
2015,06,30,11,13,23.00
2015,06,30,11,14,23.10
2015,06,30,11,15,23.20
2015,06,30,11,16,23.30
2015,06,30,11,17,23.30
2015,06,30,11,18,23.50
2015,06,30,11,19,23.60
2015,06,30,11,20,23.70
2015,06,30,11,21,23.70
2015,06,30,11,22,23.70
2015,06,30,11,23,23.70
2015,06,30,11,24,23.70
2015,06,30,11,25,23.60
2015,06,30,11,26,23.60
2015,06,30,11,27,23.50
2015,06,30,11,28,23.30
2015,06,30,11,29,23.20
2015,06,30,11,30,23.10
2015,06,30,11,31,22.90
2015,06,30,11,32,22.90
2015,06,30,11,33,23.10
2015,06,30,11,34,23.30
2015,06,30,11,35,23.30
2015,06,30,11,36,23.30
2015,06,30,11,37,23.30
2015,06,30,11,38,23.30
2015,06,30,11,39,23.10
2015,06,30,11,40,23.00
2015,06,30,11,41,22.90
2015,06,30,11,42,22.70
2015,06,30,11,43,22.60
2015,06,30,11,44,22.60
2015,06,30,11,45,22.60
2015,06,30,11,46,22.60
2015,06,30,11,47,22.60
2015,06,30,11,48,22.50
2015,06,30,11,49,22.40
2015,06,30,11,50,22.30
2015,06,30,11,51,22.30
2015,06,30,11,52,22.30
2015,06,30,11,53,22.20
2015,06,30,11,54,22.20
2015,06,30,11,55,22.20
2015,06,30,11,56,22.30
2015,06,30,11,57,22.20
2015,06,30,11,58,22.30
2015,06,30,11,59,22.50
2015,06,30,12,00,22.60
2015,06,30,12,01,22.60
2015,06,30,12,02,22.50
2015,06,30,12,03,22.40
2015,06,30,12,04,22.40
2015,06,30,12,05,22.40
2015,06,30,12,06,22.30
2015,06,30,12,07,22.20
2015,06,30,12,08,22.20
2015,06,30,12,09,22.30
2015,06,30,12,10,22.40
2015,06,30,12,11,22.60
2015,06,30,12,12,22.70
2015,06,30,12,13,22.90
2015,06,30,12,14,23.10
2015,06,30,12,15,23.20
2015,06,30,12,16,23.20
2015,06,30,12,17,23.10
2015,06,30,12,18,23.20
2015,06,30,12,19,23.30
2015,06,30,12,20,23.40
2015,06,30,12,21,23.60
2015,06,30,12,22,23.70
2015,06,30,12,23,23.50
2015,06,30,12,24,23.30
2015,06,30,12,25,23.20
2015,06,30,12,26,23.00
2015,06,30,12,27,22.90
2015,06,30,12,28,22.90
2015,06,30,12,29,22.90
2015,06,30,12,30,22.90
2015,06,30,12,31,22.80
2015,06,30,12,32,22.80
2015,06,30,12,33,22.80
2015,06,30,12,34,22.80
2015,06,30,12,35,22.80
2015,06,30,12,36,22.80
2015,06,30,12,37,22.80
2015,06,30,12,38,22.80
2015,06,30,12,39,22.80
2015,06,30,12,40,22.80
2015,06,30,12,41,22.70
2015,06,30,12,42,22.70
2015,06,30,12,43,22.70
2015,06,30,12,44,22.70
2015,06,30,12,45,22.60
2015,06,30,12,46,22.60
2015,06,30,12,47,22.50
2015,06,30,12,48,22.50
2015,06,30,12,49,22.50
2015,06,30,12,50,22.60
2015,06,30,12,51,22.60
2015,06,30,12,52,22.40
2015,06,30,12,53,22.10
2015,06,30,12,54,21.90
2015,06,30,12,55,21.70
2015,06,30,12,56,21.50
2015,06,30,12,57,21.40
2015,06,30,12,58,21.30
2015,06,30,12,59,21.30
2015,06,30,13,00,21.30
2015,06,30,13,01,21.30
2015,06,30,13,02,21.30
2015,06,30,13,03,21.40
2015,06,30,13,04,21.30
2015,06,30,13,05,21.30
2015,06,30,13,06,21.20
2015,06,30,13,07,21.10
2015,06,30,13,08,21.10
2015,06,30,13,09,21.00
2015,06,30,13,10,21.00
2015,06,30,13,11,21.00
2015,06,30,13,12,21.00
2015,06,30,13,13,21.10
2015,06,30,13,14,21.00
2015,06,30,13,15,21.00
2015,06,30,13,16,20.90
2015,06,30,13,17,20.80
2015,06,30,13,18,20.70
2015,06,30,13,19,20.70
2015,06,30,13,20,20.70
2015,06,30,13,21,20.80
2015,06,30,13,22,20.80
2015,06,30,13,23,20.80
2015,06,30,13,24,20.80
2015,06,30,13,25,20.80
2015,06,30,13,26,20.80
2015,06,30,13,27,20.80
2015,06,30,13,28,20.80
2015,06,30,13,29,20.90
2015,06,30,13,30,20.90
2015,06,30,13,31,20.90
2015,06,30,13,32,21.00
2015,06,30,13,33,21.00
2015,06,30,13,34,21.10
2015,06,30,13,35,21.10
2015,06,30,13,36,21.00
2015,06,30,13,37,21.00
2015,06,30,13,38,21.00
2015,06,30,13,39,20.90
2015,06,30,13,40,20.90
2015,06,30,13,41,21.10
2015,06,30,13,42,21.20
2015,06,30,13,43,21.40
2015,06,30,13,44,21.50
2015,06,30,13,45,21.60
2015,06,30,13,46,21.60
2015,06,30,13,47,21.40
2015,06,30,13,48,21.30
2015,06,30,13,49,21.30
2015,06,30,13,50,21.20
2015,06,30,13,51,21.10
2015,06,30,13,52,21.00
2015,06,30,13,53,20.80
2015,06,30,13,54,20.60
2015,06,30,13,55,20.30
2015,06,30,13,56,20.10
2015,06,30,13,57,20.10
2015,06,30,13,58,20.10
2015,06,30,13,59,19.90
2015,06,30,14,00,19.90
2015,06,30,14,01,19.80
2015,06,30,14,02,19.70
2015,06,30,14,03,19.70
2015,06,30,14,04,19.80
2015,06,30,14,05,19.90
2015,06,30,14,06,19.90
2015,06,30,14,07,19.90
2015,06,30,14,08,19.90
2015,06,30,14,09,19.90
2015,06,30,14,10,19.90
2015,06,30,14,11,19.80
2015,06,30,14,12,19.60
2015,06,30,14,13,19.60
2015,06,30,14,14,19.60
2015,06,30,14,15,19.50
2015,06,30,14,16,19.40
2015,06,30,14,17,19.30
2015,06,30,14,18,19.10
2015,06,30,14,19,19.00
2015,06,30,14,20,18.80
2015,06,30,14,21,18.60
2015,06,30,14,22,18.50
2015,06,30,14,23,18.40
2015,06,30,14,24,18.40
2015,06,30,14,25,18.40
2015,06,30,14,26,18.20
2015,06,30,14,27,18.10
2015,06,30,14,28,18.00
2015,06,30,14,29,17.90
2015,06,30,14,30,17.90
2015,06,30,14,31,17.90
2015,06,30,14,32,17.90
2015,06,30,14,33,18.00
2015,06,30,14,34,18.10
2015,06,30,14,35,18.20
2015,06,30,14,36,18.40
2015,06,30,14,37,18.50
2015,06,30,14,38,18.50
2015,06,30,14,39,18.50
2015,06,30,14,40,18.50
2015,06,30,14,41,18.50
2015,06,30,14,42,18.50
2015,06,30,14,43,18.60
2015,06,30,14,44,18.80
2015,06,30,14,45,19.00
2015,06,30,14,46,19.10
2015,06,30,14,47,19.30
2015,06,30,14,48,19.40
2015,06,30,14,49,19.60
2015,06,30,14,50,19.70
2015,06,30,14,51,19.90
2015,06,30,14,52,19.80
2015,06,30,14,53,19.80
2015,06,30,14,54,19.80
2015,06,30,14,55,19.80
2015,06,30,14,56,19.80
2015,06,30,14,57,19.80
2015,06,30,14,58,19.80
2015,06,30,14,59,19.70
2015,06,30,15,00,19.60
2015,06,30,15,01,19.40
2015,06,30,15,02,19.40
2015,06,30,15,03,19.20
2015,06,30,15,04,19.10
2015,06,30,15,05,19.10
2015,06,30,15,06,19.10
2015,06,30,15,07,19.10
2015,06,30,15,08,19.10
2015,06,30,15,09,19.00
2015,06,30,15,10,18.90
2015,06,30,15,11,18.90
2015,06,30,15,12,18.90
2015,06,30,15,13,18.90
2015,06,30,15,14,18.90
2015,06,30,15,15,18.80
2015,06,30,15,16,18.70
2015,06,30,15,17,18.80
2015,06,30,15,18,18.80
2015,06,30,15,19,18.70
2015,06,30,15,20,18.70
2015,06,30,15,21,18.60
2015,06,30,15,22,18.60
2015,06,30,15,23,18.70
2015,06,30,15,24,18.80
2015,06,30,15,25,19.00
2015,06,30,15,26,19.10
2015,06,30,15,27,19.10
2015,06,30,15,28,19.10
2015,06,30,15,29,19.00
2015,06,30,15,30,18.90
2015,06,30,15,31,18.90
2015,06,30,15,32,18.90
2015,06,30,15,33,18.90
2015,06,30,15,34,18.90
2015,06,30,15,35,18.90
2015,06,30,15,36,19.00
2015,06,30,15,37,19.10
2015,06,30,15,38,19.10
2015,06,30,15,39,19.20
2015,06,30,15,40,19.20
2015,06,30,15,41,19.20
2015,06,30,15,42,19.30
2015,06,30,15,43,19.40
2015,06,30,15,44,19.60
2015,06,30,15,45,19.70
2015,06,30,15,46,19.70
2015,06,30,15,47,19.70
2015,06,30,15,48,19.70
2015,06,30,15,49,19.70
2015,06,30,15,50,19.60
2015,06,30,15,51,19.50
2015,06,30,15,52,19.50
2015,06,30,15,53,19.50
2015,06,30,15,54,19.50
2015,06,30,15,55,19.50
2015,06,30,15,56,19.50
2015,06,30,15,57,19.40
2015,06,30,15,58,19.40
2015,06,30,15,59,19.40
2015,06,30,16,00,19.40
2015,06,30,16,01,19.40
2015,06,30,16,02,19.40
2015,06,30,16,03,19.40
2015,06,30,16,04,19.30
2015,06,30,16,05,19.30
2015,06,30,16,06,19.30
2015,06,30,16,07,19.10
2015,06,30,16,08,19.10
2015,06,30,16,09,19.00
2015,06,30,16,10,18.90
2015,06,30,16,11,18.90
2015,06,30,16,12,18.80
2015,06,30,16,13,18.80
2015,06,30,16,14,18.70
2015,06,30,16,15,18.70
2015,06,30,16,16,18.70
2015,06,30,16,17,18.80
2015,06,30,16,18,18.90
2015,06,30,16,19,18.90
2015,06,30,16,20,19.10
2015,06,30,16,21,19.10
2015,06,30,16,22,19.10
2015,06,30,16,23,19.10
2015,06,30,16,24,19.10
2015,06,30,16,25,19.20
2015,06,30,16,26,19.30
2015,06,30,16,27,19.40
2015,06,30,16,28,19.40
2015,06,30,16,29,19.40
2015,06,30,16,30,19.50
2015,06,30,16,31,19.50
2015,06,30,16,32,19.60
2015,06,30,16,33,19.70
2015,06,30,16,34,19.80
2015,06,30,16,35,19.80
2015,06,30,16,36,19.70
2015,06,30,16,37,19.60
2015,06,30,16,38,19.50
2015,06,30,16,39,19.50
2015,06,30,16,40,19.50
2015,06,30,16,41,19.50
2015,06,30,16,42,19.40
2015,06,30,16,43,19.30
2015,06,30,16,44,19.30
2015,06,30,16,45,19.30
2015,06,30,16,46,19.30
2015,06,30,16,47,19.40
2015,06,30,16,48,19.40
2015,06,30,16,49,19.40
2015,06,30,16,50,19.40
2015,06,30,16,51,19.60
2015,06,30,16,52,19.70
2015,06,30,16,53,19.70
2015,06,30,16,54,19.60
2015,06,30,16,55,19.60
2015,06,30,16,56,19.50
2015,06,30,16,57,19.50
2015,06,30,16,58,19.50
2015,06,30,16,59,19.50
2015,06,30,17,00,19.60
2015,06,30,17,01,19.60
2015,06,30,17,02,19.60
2015,06,30,17,03,19.60
2015,06,30,17,04,19.70
2015,06,30,17,05,19.80
2015,06,30,17,06,19.90
2015,06,30,17,07,19.90
2015,06,30,17,08,19.90
2015,06,30,17,09,19.90
2015,06,30,17,10,19.80
2015,06,30,17,11,19.80
2015,06,30,17,12,19.80
2015,06,30,17,13,19.90
2015,06,30,17,14,20.00
2015,06,30,17,15,20.20
2015,06,30,17,16,20.40
2015,06,30,17,17,20.50
2015,06,30,17,18,20.60
2015,06,30,17,19,20.70
2015,06,30,17,20,20.80
2015,06,30,17,21,20.80
2015,06,30,17,22,20.90
2015,06,30,17,23,21.00
2015,06,30,17,24,21.00
2015,06,30,17,25,21.10
2015,06,30,17,26,21.20
2015,06,30,17,27,21.30
2015,06,30,17,28,21.30
2015,06,30,17,29,21.30
2015,06,30,17,30,21.50
2015,06,30,17,31,21.60
2015,06,30,17,32,21.70
2015,06,30,17,33,21.80
2015,06,30,17,34,21.80
2015,06,30,17,35,21.80
2015,06,30,17,36,21.80
2015,06,30,17,37,21.80
2015,06,30,17,38,21.80
2015,06,30,17,39,21.90
2015,06,30,17,40,21.90
2015,06,30,17,41,21.90
2015,06,30,17,42,22.00
2015,06,30,17,43,22.00
2015,06,30,17,44,22.00
2015,06,30,17,45,22.00
2015,06,30,17,46,22.00
2015,06,30,17,47,22.00
2015,06,30,17,48,22.00
2015,06,30,17,49,22.10
2015,06,30,17,50,22.20
2015,06,30,17,51,22.20
2015,06,30,17,52,22.30
2015,06,30,17,53,22.30
2015,06,30,17,54,22.40
2015,06,30,17,55,22.50
2015,06,30,17,56,22.60
2015,06,30,17,57,22.70
2015,06,30,17,58,22.90
2015,06,30,17,59,22.90
2015,06,30,18,00,23.00
2015,06,30,18,01,23.10
2015,06,30,18,02,23.20
2015,06,30,18,03,23.20
2015,06,30,18,04,23.30
2015,06,30,18,05,23.40
2015,06,30,18,06,23.50
2015,06,30,18,07,23.60
2015,06,30,18,08,23.70
2015,06,30,18,09,23.70
2015,06,30,18,10,23.70
2015,06,30,18,11,23.70
2015,06,30,18,12,23.70
2015,06,30,18,13,23.70
2015,06,30,18,14,23.70
2015,06,30,18,15,23.80
2015,06,30,18,16,23.80
2015,06,30,18,17,23.80
2015,06,30,18,18,23.90
2015,06,30,18,19,23.90
2015,06,30,18,20,23.90
2015,06,30,18,21,24.00
2015,06,30,18,22,24.10
2015,06,30,18,23,24.10
2015,06,30,18,24,24.30
2015,06,30,18,25,24.40
2015,06,30,18,26,24.40
2015,06,30,18,27,24.50
2015,06,30,18,28,24.60
2015,06,30,18,29,24.70
2015,06,30,18,30,24.70
2015,06,30,18,31,24.80
2015,06,30,18,32,24.90
2015,06,30,18,33,24.90
2015,06,30,18,34,25.00
2015,06,30,18,35,25.00
2015,06,30,18,36,25.00
2015,06,30,18,37,25.00
2015,06,30,18,38,25.00
2015,06,30,18,39,25.00
2015,06,30,18,40,25.00
2015,06,30,18,41,24.90
2015,06,30,18,42,24.80
2015,06,30,18,43,24.80
2015,06,30,18,44,24.70
2015,06,30,18,45,24.70
2015,06,30,18,46,24.60
2015,06,30,18,47,24.50
2015,06,30,18,48,24.50
2015,06,30,18,49,24.40
2015,06,30,18,50,24.40
2015,06,30,18,51,24.30
2015,06,30,18,52,24.30
2015,06,30,18,53,24.30
2015,06,30,18,54,24.30
2015,06,30,18,55,24.30
2015,06,30,18,56,24.40
2015,06,30,18,57,24.40
2015,06,30,18,58,24.40
2015,06,30,18,59,24.40
2015,06,30,19,00,24.50
2015,06,30,19,01,24.60
2015,06,30,19,02,24.60
2015,06,30,19,03,24.50
2015,06,30,19,04,24.50
2015,06,30,19,05,24.40
2015,06,30,19,06,24.40
2015,06,30,19,07,24.30
2015,06,30,19,08,24.30
2015,06,30,19,09,24.30
2015,06,30,19,10,24.20
2015,06,30,19,11,24.20
2015,06,30,19,12,24.20
2015,06,30,19,13,24.20
2015,06,30,19,14,24.20
2015,06,30,19,15,24.20
2015,06,30,19,16,24.30
2015,06,30,19,17,24.20
2015,06,30,19,18,24.20
2015,06,30,19,19,24.30
2015,06,30,19,20,24.30
2015,06,30,19,21,24.30
2015,06,30,19,22,24.40
2015,06,30,19,23,24.40
2015,06,30,19,24,24.40
2015,06,30,19,25,24.40
2015,06,30,19,26,24.40
2015,06,30,19,27,24.40
2015,06,30,19,28,24.40
2015,06,30,19,29,24.50
2015,06,30,19,30,24.50
2015,06,30,19,31,24.50
2015,06,30,19,32,24.50
2015,06,30,19,33,24.50
2015,06,30,19,34,24.50
2015,06,30,19,35,24.50
2015,06,30,19,36,24.50
2015,06,30,19,37,24.50
2015,06,30,19,38,24.50
2015,06,30,19,39,24.50
2015,06,30,19,40,24.50
2015,06,30,19,41,24.50
2015,06,30,19,42,24.50
2015,06,30,19,43,24.50
2015,06,30,19,44,24.40
2015,06,30,19,45,24.40
2015,06,30,19,46,24.40
2015,06,30,19,47,24.40
2015,06,30,19,48,24.40
2015,06,30,19,49,24.40
2015,06,30,19,50,24.40
2015,06,30,19,51,24.40
2015,06,30,19,52,24.40
2015,06,30,19,53,24.40
2015,06,30,19,54,24.40
2015,06,30,19,55,24.40
2015,06,30,19,56,24.40
2015,06,30,19,57,24.40
2015,06,30,19,58,24.40
2015,06,30,19,59,24.40
2015,06,30,20,00,24.40
2015,06,30,20,01,24.40
2015,06,30,20,02,24.40
2015,06,30,20,03,24.40
2015,06,30,20,04,24.40
2015,06,30,20,05,24.40
2015,06,30,20,06,24.40
2015,06,30,20,07,24.40
2015,06,30,20,08,24.40
2015,06,30,20,09,24.40
2015,06,30,20,10,24.40
2015,06,30,20,11,24.40
2015,06,30,20,12,24.40
2015,06,30,20,13,24.40
2015,06,30,20,14,24.40
2015,06,30,20,15,24.40
2015,06,30,20,16,24.40
2015,06,30,20,17,24.40
2015,06,30,20,18,24.40
2015,06,30,20,19,24.40
2015,06,30,20,20,24.40
2015,06,30,20,21,24.50
2015,06,30,20,22,24.40
2015,06,30,20,23,24.40
2015,06,30,20,24,24.40
2015,06,30,20,25,24.30
2015,06,30,20,26,24.20
2015,06,30,20,27,24.10
2015,06,30,20,28,24.00
2015,06,30,20,29,23.90
2015,06,30,20,30,23.80
2015,06,30,20,31,23.70
2015,06,30,20,32,23.70
2015,06,30,20,33,23.60
2015,06,30,20,34,23.60
2015,06,30,20,35,23.50
2015,06,30,20,36,23.40
2015,06,30,20,37,23.40
2015,06,30,20,38,23.30
2015,06,30,20,39,23.30
2015,06,30,20,40,23.30
2015,06,30,20,41,23.30
2015,06,30,20,42,23.30
2015,06,30,20,43,23.20
2015,06,30,20,44,23.20
2015,06,30,20,45,23.20
2015,06,30,20,46,23.10
2015,06,30,20,47,23.10
2015,06,30,20,48,23.00
2015,06,30,20,49,22.90
2015,06,30,20,50,22.90
2015,06,30,20,51,22.90
2015,06,30,20,52,22.90
2015,06,30,20,53,22.80
2015,06,30,20,54,22.80
2015,06,30,20,55,22.80
2015,06,30,20,56,22.70
2015,06,30,20,57,22.70
2015,06,30,20,58,22.70
2015,06,30,20,59,22.70
2015,06,30,21,00,22.60
2015,06,30,21,01,22.60
2015,06,30,21,02,22.60
2015,06,30,21,03,22.60
2015,06,30,21,04,22.60
2015,06,30,21,05,22.60
2015,06,30,21,06,22.60
2015,06,30,21,07,22.60
2015,06,30,21,08,22.60
2015,06,30,21,09,22.60
2015,06,30,21,10,22.60
2015,06,30,21,11,22.60
2015,06,30,21,12,22.70
2015,06,30,21,13,22.70
2015,06,30,21,14,22.70
2015,06,30,21,15,22.60
2015,06,30,21,16,22.60
2015,06,30,21,17,22.60
2015,06,30,21,18,22.60
2015,06,30,21,19,22.60
2015,06,30,21,20,22.60
2015,06,30,21,21,22.60
2015,06,30,21,22,22.60
2015,06,30,21,23,22.50
2015,06,30,21,24,22.50
2015,06,30,21,25,22.50
2015,06,30,21,26,22.50
2015,06,30,21,27,22.50
2015,06,30,21,28,22.50
2015,06,30,21,29,22.50
2015,06,30,21,30,22.40
2015,06,30,21,31,22.30
2015,06,30,21,32,22.20
2015,06,30,21,33,22.10
2015,06,30,21,34,21.90
2015,06,30,21,35,21.80
2015,06,30,21,36,21.60
2015,06,30,21,37,21.50
2015,06,30,21,38,21.40
2015,06,30,21,39,21.30
2015,06,30,21,40,21.10
2015,06,30,21,41,21.10
2015,06,30,21,42,21.00
2015,06,30,21,43,20.90
2015,06,30,21,44,20.90
2015,06,30,21,45,20.90
2015,06,30,21,46,20.80
2015,06,30,21,47,20.80
2015,06,30,21,48,20.80
2015,06,30,21,49,20.80
2015,06,30,21,50,20.80
2015,06,30,21,51,20.80
2015,06,30,21,52,20.80
2015,06,30,21,53,20.70
2015,06,30,21,54,20.70
2015,06,30,21,55,20.70
2015,06,30,21,56,20.70
2015,06,30,21,57,20.70
2015,06,30,21,58,20.60
2015,06,30,21,59,20.60
2015,06,30,22,00,20.50
2015,06,30,22,01,20.50
2015,06,30,22,02,20.50
2015,06,30,22,03,20.40
2015,06,30,22,04,20.30
2015,06,30,22,05,20.30
2015,06,30,22,06,20.20
2015,06,30,22,07,20.10
2015,06,30,22,08,20.10
2015,06,30,22,09,19.90
2015,06,30,22,10,19.90
2015,06,30,22,11,19.80
2015,06,30,22,12,19.70
2015,06,30,22,13,19.60
2015,06,30,22,14,19.50
2015,06,30,22,15,19.50
2015,06,30,22,16,19.40
2015,06,30,22,17,19.30
2015,06,30,22,18,19.30
2015,06,30,22,19,19.20
2015,06,30,22,20,19.10
2015,06,30,22,21,19.10
2015,06,30,22,22,19.00
2015,06,30,22,23,18.90
2015,06,30,22,24,18.90
2015,06,30,22,25,18.80
2015,06,30,22,26,18.80
2015,06,30,22,27,18.70
2015,06,30,22,28,18.70
2015,06,30,22,29,18.60
2015,06,30,22,30,18.60
2015,06,30,22,31,18.50
2015,06,30,22,32,18.50
2015,06,30,22,33,18.50
2015,06,30,22,34,18.40
2015,06,30,22,35,18.40
2015,06,30,22,36,18.40
2015,06,30,22,37,18.40
2015,06,30,22,38,18.40
2015,06,30,22,39,18.30
2015,06,30,22,40,18.30
2015,06,30,22,41,18.30
2015,06,30,22,42,18.30
2015,06,30,22,43,18.30
2015,06,30,22,44,18.30
2015,06,30,22,45,18.30
2015,06,30,22,46,18.30
2015,06,30,22,47,18.30
2015,06,30,22,48,18.30
2015,06,30,22,49,18.30
2015,06,30,22,50,18.30
2015,06,30,22,51,18.30
2015,06,30,22,52,18.30
2015,06,30,22,53,18.30
2015,06,30,22,54,18.30
2015,06,30,22,55,18.30
2015,06,30,22,56,18.30
2015,06,30,22,57,18.30
2015,06,30,22,58,18.30
2015,06,30,22,59,18.30
2015,06,30,23,00,18.30
2015,06,30,23,01,18.30
2015,06,30,23,02,18.40
2015,06,30,23,03,18.40
2015,06,30,23,04,18.30
2015,06,30,23,05,18.30
2015,06,30,23,06,18.30
2015,06,30,23,07,18.30
2015,06,30,23,08,18.30
2015,06,30,23,09,18.30
2015,06,30,23,10,18.20
2015,06,30,23,11,18.20
2015,06,30,23,12,18.20
2015,06,30,23,13,18.20
2015,06,30,23,14,18.20
2015,06,30,23,15,18.20
2015,06,30,23,16,18.20
2015,06,30,23,17,18.20
2015,06,30,23,18,18.20
2015,06,30,23,19,18.20
2015,06,30,23,20,18.20
2015,06,30,23,21,18.20
2015,06,30,23,22,18.20
2015,06,30,23,23,18.20
2015,06,30,23,24,18.20
2015,06,30,23,25,18.20
2015,06,30,23,26,18.20
2015,06,30,23,27,18.20
2015,06,30,23,28,18.20
2015,06,30,23,29,18.20
2015,06,30,23,30,18.20
2015,06,30,23,31,18.20
2015,06,30,23,32,18.20
2015,06,30,23,33,18.20
2015,06,30,23,34,18.20
2015,06,30,23,35,18.20
2015,06,30,23,36,18.20
2015,06,30,23,37,18.20
2015,06,30,23,38,18.20
2015,06,30,23,39,18.20
2015,06,30,23,40,18.20
2015,06,30,23,41,18.20
2015,06,30,23,42,18.20
2015,06,30,23,43,18.20
2015,06,30,23,44,18.20
2015,06,30,23,45,18.20
2015,06,30,23,46,18.20
2015,06,30,23,47,18.20
2015,06,30,23,48,18.20
2015,06,30,23,49,18.20
2015,06,30,23,50,18.10
2015,06,30,23,51,18.10
2015,06,30,23,52,18.10
2015,06,30,23,53,18.10
2015,06,30,23,54,18.10
2015,06,30,23,55,18.10
2015,06,30,23,56,18.10
2015,06,30,23,57,18.10
2015,06,30,23,58,18.00
2015,06,30,23,59,17.90
